• In Spain
  • List of Countries
  • For 7 days
  • Water Temperature
  • Satellite Maps
  • Weather Map
  • Weather Widgets
  • user-avatar
    Login

    Hourly Weather Cochabamba

    Today, 15 November, Thursday

    Time Temperature Precipitation Wind Pressure Humidity
    00:00 +18°C° 0.4 mm 2 mps 555 mmHg 74%
    01:00 +17°C° 0.4 mm 2 mps 555 mmHg 75%
    02:00 +17°C° 0 mm 2 mps 555 mmHg 74%
    03:00 +18°C° 0.3 mm 1 mps 555 mmHg 75%
    04:00 +18°C° 0.3 mm 1 mps 555 mmHg 76%
    05:00 +16°C° 0.3 mm 1 mps 555 mmHg 77%
    06:00 +18°C° 0.1 mm 1 mps 555 mmHg 74%
    07:00 +18°C° 0.1 mm 1 mps 556 mmHg 72%
    08:00 +19°C° 0 mm 1 mps 556 mmHg 68%
    09:00 +19°C° 0.2 mm 2 mps 557 mmHg 65%
    10:00 +19°C° 0.2 mm 2 mps 557 mmHg 62%
    11:00 +20°C° 0.2 mm 2 mps 557 mmHg 59%
    12:00 +21°C° 0.3 mm 2 mps 557 mmHg 57%
    13:00 +22°C° 0.3 mm 3 mps 557 mmHg 54%
    14:00 +24°C° 0.3 mm 3 mps 556 mmHg 52%
    15:00 +22°C° 0.2 mm 3 mps 556 mmHg 54%
    16:00 +22°C° 0.2 mm 4 mps 555 mmHg 56%
    17:00 +22°C° 0.2 mm 4 mps 555 mmHg 58%
    18:00 +20°C° 0.2 mm 3 mps 555 mmHg 62%
    19:00 +19°C° 0.2 mm 3 mps 555 mmHg 67%
    20:00 +18°C° 0.2 mm 2 mps 555 mmHg 71%
    21:00 +18°C° 0.4 mm 2 mps 555 mmHg 71%
    22:00 +18°C° 0.4 mm 2 mps 556 mmHg 70%
    23:00 +17°C° 0.4 mm 2 mps 556 mmHg 70%

    Tomorrow, 16 November, Friday

    Time Temperature Precipitation Wind Pressure Humidity
    00:00 +17°C° 0.3 mm 2 mps 555 mmHg 69%
    01:00 +18°C° 0.3 mm 1 mps 555 mmHg 69%
    02:00 +18°C° 0.3 mm 1 mps 555 mmHg 68%
    03:00 +18°C° 0.1 mm 1 mps 555 mmHg 68%
    04:00 +18°C° 0.1 mm 1 mps 555 mmHg 68%
    05:00 +18°C° 0.1 mm 1 mps 555 mmHg 68%
    06:00 +18°C° 0.1 mm 1 mps 555 mmHg 65%
    07:00 +19°C° 0.1 mm 1 mps 556 mmHg 61%
    08:00 +20°C° 0.1 mm 1 mps 556 mmHg 57%
    09:00 +20°C° 0.1 mm 2 mps 557 mmHg 54%
    10:00 +21°C° 0.1 mm 2 mps 557 mmHg 51%
    11:00 +22°C° 0.1 mm 3 mps 558 mmHg 48%
    12:00 +22°C° 0.2 mm 3 mps 557 mmHg 50%
    13:00 +22°C° 0.2 mm 3 mps 557 mmHg 52%
    14:00 +23°C° 0.2 mm 4 mps 556 mmHg 54%
    15:00 +22°C° 0.3 mm 4 mps 556 mmHg 56%
    16:00 +21°C° 0.3 mm 3 mps 555 mmHg 59%
    17:00 +21°C° 0.3 mm 3 mps 554 mmHg 62%
    18:00 +20°C° 0.2 mm 3 mps 554 mmHg 65%
    19:00 +19°C° 0.2 mm 3 mps 555 mmHg 68%
    20:00 +18°C° 0.2 mm 3 mps 555 mmHg 71%
    21:00 +18°C° 0.1 mm 2 mps 555 mmHg 72%
    22:00 +17°C° 0.1 mm 2 mps 555 mmHg 72%
    23:00 +17°C° 0.1 mm 2 mps 556 mmHg 73%

    Day after tomorrow, 17 November, Saturday

    Time Temperature Precipitation Wind Pressure Humidity
    00:00 +18°C° 0 mm 1 mps 555 mmHg 73%
    01:00 +16°C° 0 mm 1 mps 555 mmHg 72%
    02:00 +16°C° 0 mm 1 mps 554 mmHg 72%
    03:00 +16°C° 0.1 mm 1 mps 554 mmHg 72%
    04:00 +16°C° 0.1 mm 1 mps 554 mmHg 72%
    05:00 +16°C° 0.1 mm 1 mps 554 mmHg 72%
    06:00 +18°C° 0.1 mm 1 mps 555 mmHg 67%
    07:00 +19°C° 0.1 mm 1 mps 555 mmHg 63%
    08:00 +19°C° 0.1 mm 2 mps 556 mmHg 58%
    09:00 +20°C° 0.3 mm 2 mps 557 mmHg 55%
    10:00 +21°C° 0.3 mm 2 mps 557 mmHg 52%
    11:00 +22°C° 0.3 mm 3 mps 558 mmHg 49%
    12:00 +22°C° 0.7 mm 3 mps 557 mmHg 50%
    13:00 +24°C° 0.7 mm 3 mps 556 mmHg 52%
    14:00 +24°C° 0.7 mm 3 mps 555 mmHg 54%
    15:00 +22°C° 0.5 mm 3 mps 555 mmHg 56%
    16:00 +22°C° 0.5 mm 3 mps 554 mmHg 57%
    17:00 +21°C° 0.5 mm 3 mps 553 mmHg 59%
    18:00 +21°C° 0.6 mm 3 mps 554 mmHg 63%
    19:00 +20°C° 0.6 mm 3 mps 554 mmHg 67%
    20:00 +19°C° 0.6 mm 3 mps 554 mmHg 70%
    21:00 +19°C° 0.6 mm 3 mps 554 mmHg 71%
    22:00 +18°C° 0.6 mm 2 mps 555 mmHg 72%
    23:00 +18°C° 0.6 mm 2 mps 555 mmHg 73%

    18 November, Sunday

    Time Temperature Precipitation Wind Pressure Humidity
    00:00 +18°C° 0.3 mm 2 mps 554 mmHg 73%
    01:00 +18°C° 0.3 mm 2 mps 554 mmHg 73%
    02:00 +17°C° 0.3 mm 2 mps 554 mmHg 73%
    03:00 +17°C° 0.4 mm 2 mps 553 mmHg 73%
    04:00 +18°C° 0.4 mm 1 mps 553 mmHg 72%
    05:00 +18°C° 0.4 mm 1 mps 553 mmHg 72%
    06:00 +19°C° 0.1 mm 1 mps 554 mmHg 68%
    07:00 +20°C° 0.1 mm 1 mps 555 mmHg 63%
    08:00 +21°C° 0.1 mm 1 mps 556 mmHg 59%
    09:00 +21°C° 0.3 mm 2 mps 556 mmHg 56%
    10:00 +23°C° 0.3 mm 2 mps 557 mmHg 53%
    11:00 +24°C° 0.3 mm 3 mps 557 mmHg 50%
    12:00 +22°C° 1.1 mm 3 mps 557 mmHg 53%
    13:00 +22°C° 1.1 mm 4 mps 556 mmHg 57%
    14:00 +22°C° 1.1 mm 4 mps 555 mmHg 60%
    15:00 +20°C° 1.8 mm 4 mps 555 mmHg 64%
    16:00 +19°C° 1.8 mm 3 mps 554 mmHg 69%
    17:00 +18°C° 1.8 mm 3 mps 554 mmHg 73%
    18:00 +18°C° 2 mm 3 mps 554 mmHg 76%
    19:00 +17°C° 2 mm 2 mps 554 mmHg 79%
    20:00 +16°C° 2 mm 2 mps 554 mmHg 82%
    21:00 +15°C° 3.2 mm 2 mps 555 mmHg 82%
    22:00 +15°C° 3.2 mm 2 mps 555 mmHg 83%
    23:00 +13°C° 3.2 mm 3 mps 556 mmHg 84%

    19 November, Monday

    Time Temperature Precipitation Wind Pressure Humidity
    00:00 +14°C° 2.8 mm 2 mps 555 mmHg 84%
    01:00 +14°C° 2.8 mm 2 mps 554 mmHg 85%
    02:00 +13°C° 2.8 mm 2 mps 554 mmHg 85%
    03:00 +13°C° 1.3 mm 2 mps 554 mmHg 84%
    04:00 +13°C° 1.3 mm 1 mps 554 mmHg 83%
    05:00 +13°C° 1.3 mm 1 mps 554 mmHg 83%
    06:00 +13°C° 1.2 mm 1 mps 554 mmHg 81%
    07:00 +14°C° 1.2 mm 1 mps 555 mmHg 80%
    08:00 +14°C° 1.2 mm 1 mps 555 mmHg 79%
    09:00 +14°C° 0.9 mm 1 mps 556 mmHg 78%
    10:00 +15°C° 0.9 mm 1 mps 556 mmHg 76%
    11:00 +15°C° 0.9 mm 1 mps 556 mmHg 74%
    12:00 +16°C° 0.7 mm 1 mps 556 mmHg 73%
    13:00 +16°C° 0.7 mm 1 mps 555 mmHg 71%
    14:00 +18°C° 0.7 mm 1 mps 555 mmHg 70%
    15:00 +18°C° 0.6 mm 1 mps 554 mmHg 70%
    16:00 +18°C° 0.6 mm 1 mps 554 mmHg 70%
    17:00 +16°C° 0.6 mm 1 mps 554 mmHg 71%
    18:00 +16°C° 0.3 mm 1 mps 554 mmHg 72%
    19:00 +16°C° 0.3 mm 1 mps 554 mmHg 73%
    20:00 +16°C° 0.3 mm 1 mps 554 mmHg 75%
    21:00 +15°C° 0.4 mm 1 mps 554 mmHg 76%
    22:00 +14°C° 0.4 mm 0 mps 555 mmHg 77%
    23:00 +14°C° 0.4 mm 0 mps 555 mmHg 79%

    20 November, Tuesday

    Time Temperature Precipitation Wind Pressure Humidity
    00:00 +14°C° 0.7 mm 0 mps 555 mmHg 79%
    01:00 +14°C° 0.7 mm 0 mps 554 mmHg 80%
    02:00 +13°C° 0.7 mm 0 mps 554 mmHg 81%
    03:00 +13°C° 0.5 mm 0 mps 554 mmHg 80%
    04:00 +13°C° 0.5 mm 0 mps 554 mmHg 80%
    05:00 +13°C° 0.5 mm 0 mps 554 mmHg 80%
    06:00 +15°C° 0.2 mm 1 mps 554 mmHg 77%
    07:00 +15°C° 0.2 mm 1 mps 555 mmHg 75%
    08:00 +16°C° 0.2 mm 1 mps 555 mmHg 73%
    09:00 +18°C° 0.3 mm 1 mps 556 mmHg 69%
    10:00 +19°C° 0.3 mm 1 mps 556 mmHg 66%
    11:00 +19°C° 0.3 mm 2 mps 556 mmHg 63%
    12:00 +18°C° 0.6 mm 2 mps 556 mmHg 64%
    13:00 +18°C° 0.6 mm 2 mps 555 mmHg 65%
    14:00 +18°C° 0.6 mm 3 mps 555 mmHg 67%
    15:00 +18°C° 0.4 mm 3 mps 554 mmHg 67%
    16:00 +18°C° 0.4 mm 2 mps 554 mmHg 68%
    17:00 +18°C° 0.4 mm 2 mps 554 mmHg 69%
    18:00 +17°C° 0.3 mm 2 mps 554 mmHg 71%
    19:00 +17°C° 0.3 mm 2 mps 555 mmHg 74%
    20:00 +16°C° 0.3 mm 2 mps 555 mmHg 77%
    21:00 +16°C° 0.7 mm 2 mps 555 mmHg 77%
    22:00 +16°C° 0.7 mm 1 mps 555 mmHg 78%
    23:00 +15°C° 0.7 mm 1 mps 556 mmHg 79%
    Show more